Year,Month,Day,Hour,Minute,Value (Times are PST for temperature in C)
2013,05,05,00,00,20.80
2013,05,05,00,01,20.80
2013,05,05,00,02,20.70
2013,05,05,00,03,20.70
2013,05,05,00,04,20.70
2013,05,05,00,05,20.60
2013,05,05,00,06,20.50
2013,05,05,00,07,20.40
2013,05,05,00,08,20.30
2013,05,05,00,09,20.30
2013,05,05,00,10,20.20
2013,05,05,00,11,20.20
2013,05,05,00,12,20.10
2013,05,05,00,13,20.00
2013,05,05,00,14,19.90
2013,05,05,00,15,19.80
2013,05,05,00,16,19.70
2013,05,05,00,17,19.70
2013,05,05,00,18,19.60
2013,05,05,00,19,19.50
2013,05,05,00,20,19.40
2013,05,05,00,21,19.20
2013,05,05,00,22,19.10
2013,05,05,00,23,18.90
2013,05,05,00,24,18.80
2013,05,05,00,25,18.70
2013,05,05,00,26,18.50
2013,05,05,00,27,18.40
2013,05,05,00,28,18.30
2013,05,05,00,29,18.20
2013,05,05,00,30,18.00
2013,05,05,00,31,17.90
2013,05,05,00,32,17.80
2013,05,05,00,33,17.70
2013,05,05,00,34,17.50
2013,05,05,00,35,17.40
2013,05,05,00,36,17.30
2013,05,05,00,37,17.20
2013,05,05,00,38,17.10
2013,05,05,00,39,17.00
2013,05,05,00,40,16.90
2013,05,05,00,41,16.80
2013,05,05,00,42,16.80
2013,05,05,00,43,16.80
2013,05,05,00,44,16.80
2013,05,05,00,45,16.90
2013,05,05,00,46,17.10
2013,05,05,00,47,17.30
2013,05,05,00,48,17.60
2013,05,05,00,49,17.80
2013,05,05,00,50,18.00
2013,05,05,00,51,18.30
2013,05,05,00,52,18.40
2013,05,05,00,53,18.60
2013,05,05,00,54,18.80
2013,05,05,00,55,18.90
2013,05,05,00,56,19.10
2013,05,05,00,57,19.20
2013,05,05,00,58,19.30
2013,05,05,00,59,19.50
2013,05,05,01,00,19.50
2013,05,05,01,01,19.60
2013,05,05,01,02,19.60
2013,05,05,01,03,19.50
2013,05,05,01,04,19.50
2013,05,05,01,05,19.40
2013,05,05,01,06,19.30
2013,05,05,01,07,19.30
2013,05,05,01,08,19.30
2013,05,05,01,09,19.30
2013,05,05,01,10,19.30
2013,05,05,01,11,19.20
2013,05,05,01,12,19.20
2013,05,05,01,13,19.10
2013,05,05,01,14,19.00
2013,05,05,01,15,19.00
2013,05,05,01,16,18.80
2013,05,05,01,17,18.70
2013,05,05,01,18,18.60
2013,05,05,01,19,18.60
2013,05,05,01,20,18.50
2013,05,05,01,21,18.40
2013,05,05,01,22,18.30
2013,05,05,01,23,18.30
2013,05,05,01,24,18.30
2013,05,05,01,25,18.20
2013,05,05,01,26,18.20
2013,05,05,01,27,18.20
2013,05,05,01,28,18.10
2013,05,05,01,29,18.10
2013,05,05,01,30,18.10
2013,05,05,01,31,18.10
2013,05,05,01,32,18.10
2013,05,05,01,33,18.00
2013,05,05,01,34,18.00
2013,05,05,01,35,18.00
2013,05,05,01,36,17.90
2013,05,05,01,37,17.80
2013,05,05,01,38,17.80
2013,05,05,01,39,17.80
2013,05,05,01,40,17.90
2013,05,05,01,41,17.90
2013,05,05,01,42,17.90
2013,05,05,01,43,17.90
2013,05,05,01,44,17.90
2013,05,05,01,45,17.80
2013,05,05,01,46,17.70
2013,05,05,01,47,17.70
2013,05,05,01,48,17.60
2013,05,05,01,49,17.50
2013,05,05,01,50,17.50
2013,05,05,01,51,17.50
2013,05,05,01,52,17.40
2013,05,05,01,53,17.30
2013,05,05,01,54,17.30
2013,05,05,01,55,17.20
2013,05,05,01,56,17.20
2013,05,05,01,57,17.10
2013,05,05,01,58,17.10
2013,05,05,01,59,17.00
2013,05,05,02,00,17.00
2013,05,05,02,01,17.00
2013,05,05,02,02,17.00
2013,05,05,02,03,17.00
2013,05,05,02,04,17.10
2013,05,05,02,05,17.20
2013,05,05,02,06,17.20
2013,05,05,02,07,17.30
2013,05,05,02,08,17.30
2013,05,05,02,09,17.40
2013,05,05,02,10,17.50
2013,05,05,02,11,17.60
2013,05,05,02,12,17.70
2013,05,05,02,13,17.70
2013,05,05,02,14,17.80
2013,05,05,02,15,17.80
2013,05,05,02,16,17.80
2013,05,05,02,17,17.90
2013,05,05,02,18,17.90
2013,05,05,02,19,17.90
2013,05,05,02,20,17.90
2013,05,05,02,21,17.90
2013,05,05,02,22,17.90
2013,05,05,02,23,17.90
2013,05,05,02,24,17.90
2013,05,05,02,25,17.80
2013,05,05,02,26,17.80
2013,05,05,02,27,17.80
2013,05,05,02,28,17.80
2013,05,05,02,29,17.80
2013,05,05,02,30,17.80
2013,05,05,02,31,17.80
2013,05,05,02,32,17.70
2013,05,05,02,33,17.70
2013,05,05,02,34,17.70
2013,05,05,02,35,17.70
2013,05,05,02,36,17.60
2013,05,05,02,37,17.60
2013,05,05,02,38,17.60
2013,05,05,02,39,17.60
2013,05,05,02,40,17.60
2013,05,05,02,41,17.50
2013,05,05,02,42,17.50
2013,05,05,02,43,17.40
2013,05,05,02,44,17.30
2013,05,05,02,45,17.30
2013,05,05,02,46,17.30
2013,05,05,02,47,17.20
2013,05,05,02,48,17.10
2013,05,05,02,49,17.00
2013,05,05,02,50,17.00
2013,05,05,02,51,16.90
2013,05,05,02,52,16.80
2013,05,05,02,53,16.70
2013,05,05,02,54,16.70
2013,05,05,02,55,16.60
2013,05,05,02,56,16.50
2013,05,05,02,57,16.40
2013,05,05,02,58,16.30
2013,05,05,02,59,16.30
2013,05,05,03,00,16.20
2013,05,05,03,01,16.10
2013,05,05,03,02,16.00
2013,05,05,03,03,16.00
2013,05,05,03,04,15.90
2013,05,05,03,05,15.80
2013,05,05,03,06,15.70
2013,05,05,03,07,15.60
2013,05,05,03,08,15.60
2013,05,05,03,09,15.50
2013,05,05,03,10,15.50
2013,05,05,03,11,15.40
2013,05,05,03,12,15.30
2013,05,05,03,13,15.30
2013,05,05,03,14,15.20
2013,05,05,03,15,15.10
2013,05,05,03,16,15.00
2013,05,05,03,17,15.00
2013,05,05,03,18,15.00
2013,05,05,03,19,15.00
2013,05,05,03,20,15.00
2013,05,05,03,21,15.00
2013,05,05,03,22,15.00
2013,05,05,03,23,15.00
2013,05,05,03,24,15.00
2013,05,05,03,25,15.00
2013,05,05,03,26,15.00
2013,05,05,03,27,15.00
2013,05,05,03,28,15.00
2013,05,05,03,29,15.00
2013,05,05,03,30,15.00
2013,05,05,03,31,15.00
2013,05,05,03,32,15.00
2013,05,05,03,33,15.00
2013,05,05,03,34,15.00
2013,05,05,03,35,15.00
2013,05,05,03,36,15.00
2013,05,05,03,37,15.00
2013,05,05,03,38,15.00
2013,05,05,03,39,15.00
2013,05,05,03,40,15.10
2013,05,05,03,41,15.20
2013,05,05,03,42,15.30
2013,05,05,03,43,15.30
2013,05,05,03,44,15.30
2013,05,05,03,45,15.30
2013,05,05,03,46,15.30
2013,05,05,03,47,15.30
2013,05,05,03,48,15.30
2013,05,05,03,49,15.20
2013,05,05,03,50,15.20
2013,05,05,03,51,15.20
2013,05,05,03,52,15.10
2013,05,05,03,53,15.00
2013,05,05,03,54,15.10
2013,05,05,03,55,15.20
2013,05,05,03,56,15.20
2013,05,05,03,57,15.30
2013,05,05,03,58,15.40
2013,05,05,03,59,15.40
2013,05,05,04,00,15.50
2013,05,05,04,01,15.50
2013,05,05,04,02,15.60
2013,05,05,04,03,15.70
2013,05,05,04,04,15.80
2013,05,05,04,05,15.80
2013,05,05,04,06,15.80
2013,05,05,04,07,15.80
2013,05,05,04,08,15.80
2013,05,05,04,09,15.80
2013,05,05,04,10,15.80
2013,05,05,04,11,15.90
2013,05,05,04,12,15.90
2013,05,05,04,13,15.90
2013,05,05,04,14,15.90
2013,05,05,04,15,15.90
2013,05,05,04,16,15.90
2013,05,05,04,17,15.90
2013,05,05,04,18,15.90
2013,05,05,04,19,15.90
2013,05,05,04,20,15.90
2013,05,05,04,21,15.90
2013,05,05,04,22,15.90
2013,05,05,04,23,15.90
2013,05,05,04,24,15.90
2013,05,05,04,25,15.90
2013,05,05,04,26,15.90
2013,05,05,04,27,15.90
2013,05,05,04,28,15.90
2013,05,05,04,29,15.90
2013,05,05,04,30,15.90
2013,05,05,04,31,15.80
2013,05,05,04,32,15.80
2013,05,05,04,33,15.80
2013,05,05,04,34,15.80
2013,05,05,04,35,15.80
2013,05,05,04,36,15.80
2013,05,05,04,37,15.70
2013,05,05,04,38,15.70
2013,05,05,04,39,15.70
2013,05,05,04,40,15.60
2013,05,05,04,41,15.50
2013,05,05,04,42,15.40
2013,05,05,04,43,15.40
2013,05,05,04,44,15.40
2013,05,05,04,45,15.40
2013,05,05,04,46,15.40
2013,05,05,04,47,15.40
2013,05,05,04,48,15.40
2013,05,05,04,49,15.30
2013,05,05,04,50,15.30
2013,05,05,04,51,15.30
2013,05,05,04,52,15.20
2013,05,05,04,53,15.20
2013,05,05,04,54,15.20
2013,05,05,04,55,15.20
2013,05,05,04,56,15.20
2013,05,05,04,57,15.10
2013,05,05,04,58,15.10
2013,05,05,04,59,15.10
2013,05,05,05,00,15.10
2013,05,05,05,01,15.00
2013,05,05,05,02,15.00
2013,05,05,05,03,15.00
2013,05,05,05,04,15.00
2013,05,05,05,05,15.00
2013,05,05,05,06,15.00
2013,05,05,05,07,15.00
2013,05,05,05,08,15.00
2013,05,05,05,09,14.80
2013,05,05,05,10,14.80
2013,05,05,05,11,14.80
2013,05,05,05,12,14.70
2013,05,05,05,13,14.60
2013,05,05,05,14,14.60
2013,05,05,05,15,14.50
2013,05,05,05,16,14.40
2013,05,05,05,17,14.30
2013,05,05,05,18,14.30
2013,05,05,05,19,14.20
2013,05,05,05,20,14.20
2013,05,05,05,21,14.10
2013,05,05,05,22,14.10
2013,05,05,05,23,14.10
2013,05,05,05,24,14.00
2013,05,05,05,25,14.00
2013,05,05,05,26,13.90
2013,05,05,05,27,13.90
2013,05,05,05,28,13.90
2013,05,05,05,29,13.90
2013,05,05,05,30,13.90
2013,05,05,05,31,13.90
2013,05,05,05,32,13.80
2013,05,05,05,33,13.80
2013,05,05,05,34,13.80
2013,05,05,05,35,13.80
2013,05,05,05,36,13.80
2013,05,05,05,37,13.80
2013,05,05,05,38,13.80
2013,05,05,05,39,13.80
2013,05,05,05,40,13.70
2013,05,05,05,41,13.70
2013,05,05,05,42,13.70
2013,05,05,05,43,13.70
2013,05,05,05,44,13.70
2013,05,05,05,45,13.60
2013,05,05,05,46,13.60
2013,05,05,05,47,13.60
2013,05,05,05,48,13.60
2013,05,05,05,49,13.60
2013,05,05,05,50,13.60
2013,05,05,05,51,13.60
2013,05,05,05,52,13.70
2013,05,05,05,53,13.70
2013,05,05,05,54,13.80
2013,05,05,05,55,13.80
2013,05,05,05,56,13.90
2013,05,05,05,57,13.80
2013,05,05,05,58,13.80
2013,05,05,05,59,13.80
2013,05,05,06,00,13.80
2013,05,05,06,01,13.80
2013,05,05,06,02,13.80
2013,05,05,06,03,13.70
2013,05,05,06,04,13.70
2013,05,05,06,05,13.70
2013,05,05,06,06,13.70
2013,05,05,06,07,13.70
2013,05,05,06,08,13.60
2013,05,05,06,09,13.60
2013,05,05,06,10,13.60
2013,05,05,06,11,13.60
2013,05,05,06,12,13.60
2013,05,05,06,13,13.60
2013,05,05,06,14,13.60
2013,05,05,06,15,13.60
2013,05,05,06,16,13.60
2013,05,05,06,17,13.60
2013,05,05,06,18,13.60
2013,05,05,06,19,13.60
2013,05,05,06,20,13.60
2013,05,05,06,21,13.60
2013,05,05,06,22,13.60
2013,05,05,06,23,13.60
2013,05,05,06,24,13.60
2013,05,05,06,25,13.60
2013,05,05,06,26,13.60
2013,05,05,06,27,13.60
2013,05,05,06,28,13.60
2013,05,05,06,29,13.50
2013,05,05,06,30,13.50
2013,05,05,06,31,13.50
2013,05,05,06,32,13.50
2013,05,05,06,33,13.50
2013,05,05,06,34,13.60
2013,05,05,06,35,13.60
2013,05,05,06,36,13.70
2013,05,05,06,37,13.80
2013,05,05,06,38,13.80
2013,05,05,06,39,13.80
2013,05,05,06,40,13.80
2013,05,05,06,41,13.80
2013,05,05,06,42,13.80
2013,05,05,06,43,13.90
2013,05,05,06,44,14.00
2013,05,05,06,45,14.00
2013,05,05,06,46,14.20
2013,05,05,06,47,14.30
2013,05,05,06,48,14.40
2013,05,05,06,49,14.60
2013,05,05,06,50,14.80
2013,05,05,06,51,15.00
2013,05,05,06,52,15.30
2013,05,05,06,53,15.50
2013,05,05,06,54,15.60
2013,05,05,06,55,15.70
2013,05,05,06,56,15.70
2013,05,05,06,57,15.80
2013,05,05,06,58,15.80
2013,05,05,06,59,15.80
2013,05,05,07,00,15.90
2013,05,05,07,01,15.90
2013,05,05,07,02,15.90
2013,05,05,07,03,15.90
2013,05,05,07,04,15.80
2013,05,05,07,05,15.80
2013,05,05,07,06,15.70
2013,05,05,07,07,15.70
2013,05,05,07,08,15.70
2013,05,05,07,09,15.70
2013,05,05,07,10,15.70
2013,05,05,07,11,15.70
2013,05,05,07,12,15.80
2013,05,05,07,13,15.80
2013,05,05,07,14,15.80
2013,05,05,07,15,15.80
2013,05,05,07,16,15.80
2013,05,05,07,17,15.90
2013,05,05,07,18,15.90
2013,05,05,07,19,16.00
2013,05,05,07,20,16.10
2013,05,05,07,21,16.10
2013,05,05,07,22,16.20
2013,05,05,07,23,16.20
2013,05,05,07,24,16.20
2013,05,05,07,25,16.30
2013,05,05,07,26,16.40
2013,05,05,07,27,16.50
2013,05,05,07,28,16.60
2013,05,05,07,29,16.70
2013,05,05,07,30,16.70
2013,05,05,07,31,16.80
2013,05,05,07,32,16.90
2013,05,05,07,33,16.90
2013,05,05,07,34,16.90
2013,05,05,07,35,16.90
2013,05,05,07,36,16.90
2013,05,05,07,37,16.90
2013,05,05,07,38,17.00
2013,05,05,07,39,17.00
2013,05,05,07,40,17.10
2013,05,05,07,41,17.10
2013,05,05,07,42,17.10
2013,05,05,07,43,17.20
2013,05,05,07,44,17.10
2013,05,05,07,45,17.10
2013,05,05,07,46,17.20
2013,05,05,07,47,17.20
2013,05,05,07,48,17.20
2013,05,05,07,49,17.20
2013,05,05,07,50,17.30
2013,05,05,07,51,17.40
2013,05,05,07,52,17.40
2013,05,05,07,53,17.50
2013,05,05,07,54,17.40
2013,05,05,07,55,17.40
2013,05,05,07,56,17.40
2013,05,05,07,57,17.50
2013,05,05,07,58,17.60
2013,05,05,07,59,17.60
2013,05,05,08,00,17.70
2013,05,05,08,01,17.80
2013,05,05,08,02,17.90
2013,05,05,08,03,17.90
2013,05,05,08,04,18.10
2013,05,05,08,05,18.20
2013,05,05,08,06,18.20
2013,05,05,08,07,18.30
2013,05,05,08,08,18.30
2013,05,05,08,09,18.40
2013,05,05,08,10,18.40
2013,05,05,08,11,18.40
2013,05,05,08,12,18.40
2013,05,05,08,13,18.40
2013,05,05,08,14,18.40
2013,05,05,08,15,18.40
2013,05,05,08,16,18.40
2013,05,05,08,17,18.40
2013,05,05,08,18,18.40
2013,05,05,08,19,18.50
2013,05,05,08,20,18.60
2013,05,05,08,21,18.70
2013,05,05,08,22,18.80
2013,05,05,08,23,18.80
2013,05,05,08,24,18.90
2013,05,05,08,25,18.90
2013,05,05,08,26,19.00
2013,05,05,08,27,19.10
2013,05,05,08,28,19.10
2013,05,05,08,29,19.20
2013,05,05,08,30,19.30
2013,05,05,08,31,19.40
2013,05,05,08,32,19.50
2013,05,05,08,33,19.70
2013,05,05,08,34,19.80
2013,05,05,08,35,19.90
2013,05,05,08,36,20.00
2013,05,05,08,37,20.10
2013,05,05,08,38,20.10
2013,05,05,08,39,20.10
2013,05,05,08,40,20.10
2013,05,05,08,41,20.10
2013,05,05,08,42,20.00
2013,05,05,08,43,19.90
2013,05,05,08,44,19.90
2013,05,05,08,45,19.90
2013,05,05,08,46,19.90
2013,05,05,08,47,19.90
2013,05,05,08,48,19.90
2013,05,05,08,49,19.90
2013,05,05,08,50,20.00
2013,05,05,08,51,20.10
2013,05,05,08,52,20.20
2013,05,05,08,53,20.20
2013,05,05,08,54,20.20
2013,05,05,08,55,20.30
2013,05,05,08,56,20.40
2013,05,05,08,57,20.50
2013,05,05,08,58,20.70
2013,05,05,08,59,20.80
2013,05,05,09,00,20.90
2013,05,05,09,01,21.00
2013,05,05,09,02,21.00
2013,05,05,09,03,21.00
2013,05,05,09,04,20.90
2013,05,05,09,05,20.90
2013,05,05,09,06,20.90
2013,05,05,09,07,20.90
2013,05,05,09,08,20.80
2013,05,05,09,09,20.90
2013,05,05,09,10,21.10
2013,05,05,09,11,21.20
2013,05,05,09,12,21.20
2013,05,05,09,13,21.20
2013,05,05,09,14,21.20
2013,05,05,09,15,21.30
2013,05,05,09,16,21.30
2013,05,05,09,17,21.20
2013,05,05,09,18,21.20
2013,05,05,09,19,21.20
2013,05,05,09,20,21.20
2013,05,05,09,21,21.20
2013,05,05,09,22,21.20
2013,05,05,09,23,21.20
2013,05,05,09,24,21.20
2013,05,05,09,25,21.10
2013,05,05,09,26,21.00
2013,05,05,09,27,21.00
2013,05,05,09,28,20.90
2013,05,05,09,29,20.90
2013,05,05,09,30,20.90
2013,05,05,09,31,21.00
2013,05,05,09,32,21.10
2013,05,05,09,33,21.10
2013,05,05,09,34,21.20
2013,05,05,09,35,21.20
2013,05,05,09,36,21.20
2013,05,05,09,37,21.30
2013,05,05,09,38,21.30
2013,05,05,09,39,21.10
2013,05,05,09,40,21.00
2013,05,05,09,41,20.90
2013,05,05,09,42,20.90
2013,05,05,09,43,21.00
2013,05,05,09,44,21.00
2013,05,05,09,45,21.10
2013,05,05,09,46,21.10
2013,05,05,09,47,21.10
2013,05,05,09,48,21.20
2013,05,05,09,49,21.20
2013,05,05,09,50,21.20
2013,05,05,09,51,21.30
2013,05,05,09,52,21.30
2013,05,05,09,53,21.30
2013,05,05,09,54,21.40
2013,05,05,09,55,21.40
2013,05,05,09,56,21.40
2013,05,05,09,57,21.30
2013,05,05,09,58,21.40
2013,05,05,09,59,21.50
2013,05,05,10,00,21.60
2013,05,05,10,01,21.70
2013,05,05,10,02,21.70
2013,05,05,10,03,21.70
2013,05,05,10,04,21.70
2013,05,05,10,05,21.70
2013,05,05,10,06,21.70
2013,05,05,10,07,21.70
2013,05,05,10,08,21.70
2013,05,05,10,09,21.70
2013,05,05,10,10,21.70
2013,05,05,10,11,21.70
2013,05,05,10,12,21.80
2013,05,05,10,13,21.80
2013,05,05,10,14,21.70
2013,05,05,10,15,21.80
2013,05,05,10,16,21.80
2013,05,05,10,17,21.80
2013,05,05,10,18,21.80
2013,05,05,10,19,21.90
2013,05,05,10,20,22.00
2013,05,05,10,21,22.10
2013,05,05,10,22,22.20
2013,05,05,10,23,22.40
2013,05,05,10,24,22.60
2013,05,05,10,25,22.70
2013,05,05,10,26,22.80
2013,05,05,10,27,22.70
2013,05,05,10,28,22.70
2013,05,05,10,29,22.70
2013,05,05,10,30,22.70
2013,05,05,10,31,22.70
2013,05,05,10,32,22.80
2013,05,05,10,33,22.80
2013,05,05,10,34,22.80
2013,05,05,10,35,22.80
2013,05,05,10,36,22.80
2013,05,05,10,37,22.80
2013,05,05,10,38,22.90
2013,05,05,10,39,22.90
2013,05,05,10,40,23.00
2013,05,05,10,41,23.10
2013,05,05,10,42,23.10
2013,05,05,10,43,23.10
2013,05,05,10,44,23.10
2013,05,05,10,45,23.10
2013,05,05,10,46,23.00
2013,05,05,10,47,23.00
2013,05,05,10,48,23.10
2013,05,05,10,49,23.10
2013,05,05,10,50,23.10
2013,05,05,10,51,23.10
2013,05,05,10,52,23.20
2013,05,05,10,53,23.20
2013,05,05,10,54,23.20
2013,05,05,10,55,23.20
2013,05,05,10,56,23.30
2013,05,05,10,57,23.30
2013,05,05,10,58,23.30
2013,05,05,10,59,23.30
2013,05,05,11,00,23.40
2013,05,05,11,01,23.50
2013,05,05,11,02,23.60
2013,05,05,11,03,23.50
2013,05,05,11,04,23.40
2013,05,05,11,05,23.40
2013,05,05,11,06,23.30
2013,05,05,11,07,23.40
2013,05,05,11,08,23.40
2013,05,05,11,09,23.40
2013,05,05,11,10,23.40
2013,05,05,11,11,23.40
2013,05,05,11,12,23.40
2013,05,05,11,13,23.50
2013,05,05,11,14,23.60
2013,05,05,11,15,23.70
2013,05,05,11,16,23.80
2013,05,05,11,17,23.90
2013,05,05,11,18,24.00
2013,05,05,11,19,24.10
2013,05,05,11,20,24.00
2013,05,05,11,21,23.80
2013,05,05,11,22,23.80
2013,05,05,11,23,23.70
2013,05,05,11,24,23.60
2013,05,05,11,25,23.40
2013,05,05,11,26,23.30
2013,05,05,11,27,23.40
2013,05,05,11,28,23.40
2013,05,05,11,29,23.30
2013,05,05,11,30,23.40
2013,05,05,11,31,23.40
2013,05,05,11,32,23.60
2013,05,05,11,33,23.70
2013,05,05,11,34,23.80
2013,05,05,11,35,24.00
2013,05,05,11,36,24.20
2013,05,05,11,37,24.30
2013,05,05,11,38,24.30
2013,05,05,11,39,24.40
2013,05,05,11,40,24.40
2013,05,05,11,41,24.40
2013,05,05,11,42,24.50
2013,05,05,11,43,24.50
2013,05,05,11,44,24.40
2013,05,05,11,45,24.20
2013,05,05,11,46,24.20
2013,05,05,11,47,24.10
2013,05,05,11,48,24.10
2013,05,05,11,49,24.20
2013,05,05,11,50,24.30
2013,05,05,11,51,24.40
2013,05,05,11,52,24.40
2013,05,05,11,53,24.50
2013,05,05,11,54,24.50
2013,05,05,11,55,24.40
2013,05,05,11,56,24.40
2013,05,05,11,57,24.30
2013,05,05,11,58,24.30
2013,05,05,11,59,24.20
2013,05,05,12,00,24.10
2013,05,05,12,01,24.00
2013,05,05,12,02,23.90
2013,05,05,12,03,23.90
2013,05,05,12,04,23.90
2013,05,05,12,05,24.00
2013,05,05,12,06,24.00
2013,05,05,12,07,24.10
2013,05,05,12,08,24.10
2013,05,05,12,09,24.20
2013,05,05,12,10,24.20
2013,05,05,12,11,24.30
2013,05,05,12,12,24.30
2013,05,05,12,13,24.40
2013,05,05,12,14,24.40
2013,05,05,12,15,24.50
2013,05,05,12,16,24.60
2013,05,05,12,17,24.70
2013,05,05,12,18,24.80
2013,05,05,12,19,24.80
2013,05,05,12,20,24.80
2013,05,05,12,21,24.90
2013,05,05,12,22,24.90
2013,05,05,12,23,25.00
2013,05,05,12,24,25.10
2013,05,05,12,25,25.20
2013,05,05,12,26,25.30
2013,05,05,12,27,25.40
2013,05,05,12,28,25.40
2013,05,05,12,29,25.50
2013,05,05,12,30,25.50
2013,05,05,12,31,25.60
2013,05,05,12,32,25.60
2013,05,05,12,33,25.70
2013,05,05,12,34,25.80
2013,05,05,12,35,25.80
2013,05,05,12,36,25.90
2013,05,05,12,37,25.90
2013,05,05,12,38,25.90
2013,05,05,12,39,25.90
2013,05,05,12,40,25.90
2013,05,05,12,41,25.90
2013,05,05,12,42,25.90
2013,05,05,12,43,25.80
2013,05,05,12,44,25.70
2013,05,05,12,45,25.50
2013,05,05,12,46,25.40
2013,05,05,12,47,25.40
2013,05,05,12,48,25.40
2013,05,05,12,49,25.50
2013,05,05,12,50,25.50
2013,05,05,12,51,25.60
2013,05,05,12,52,25.70
2013,05,05,12,53,25.80
2013,05,05,12,54,25.70
2013,05,05,12,55,25.70
2013,05,05,12,56,25.70
2013,05,05,12,57,25.70
2013,05,05,12,58,25.70
2013,05,05,12,59,25.70
2013,05,05,13,00,25.80
2013,05,05,13,01,25.90
2013,05,05,13,02,25.90
2013,05,05,13,03,25.90
2013,05,05,13,04,25.80
2013,05,05,13,05,25.80
2013,05,05,13,06,25.70
2013,05,05,13,07,25.70
2013,05,05,13,08,25.60
2013,05,05,13,09,25.60
2013,05,05,13,10,25.50
2013,05,05,13,11,25.50
2013,05,05,13,12,25.50
2013,05,05,13,13,25.50
2013,05,05,13,14,25.50
2013,05,05,13,15,25.60
2013,05,05,13,16,25.70
2013,05,05,13,17,25.70
2013,05,05,13,18,25.80
2013,05,05,13,19,25.90
2013,05,05,13,20,26.00
2013,05,05,13,21,26.10
2013,05,05,13,22,26.20
2013,05,05,13,23,26.30
2013,05,05,13,24,26.30
2013,05,05,13,25,26.20
2013,05,05,13,26,26.10
2013,05,05,13,27,26.10
2013,05,05,13,28,26.20
2013,05,05,13,29,26.20
2013,05,05,13,30,26.30
2013,05,05,13,31,26.30
2013,05,05,13,32,26.40
2013,05,05,13,33,26.40
2013,05,05,13,34,26.40
2013,05,05,13,35,26.40
2013,05,05,13,36,26.40
2013,05,05,13,37,26.40
2013,05,05,13,38,26.40
2013,05,05,13,39,26.40
2013,05,05,13,40,26.40
2013,05,05,13,41,26.40
2013,05,05,13,42,26.50
2013,05,05,13,43,26.60
2013,05,05,13,44,26.60
2013,05,05,13,45,26.50
2013,05,05,13,46,26.50
2013,05,05,13,47,26.60
2013,05,05,13,48,26.60
2013,05,05,13,49,26.70
2013,05,05,13,50,26.70
2013,05,05,13,51,26.70
2013,05,05,13,52,26.80
2013,05,05,13,53,26.80
2013,05,05,13,54,26.70
2013,05,05,13,55,26.70
2013,05,05,13,56,26.70
2013,05,05,13,57,26.70
2013,05,05,13,58,26.70
2013,05,05,13,59,26.70
2013,05,05,14,00,26.70
2013,05,05,14,01,26.70
2013,05,05,14,02,26.70
2013,05,05,14,03,26.70
2013,05,05,14,04,26.70
2013,05,05,14,05,26.60
2013,05,05,14,06,26.50
2013,05,05,14,07,26.50
2013,05,05,14,08,26.40
2013,05,05,14,09,26.40
2013,05,05,14,10,26.30
2013,05,05,14,11,26.30
2013,05,05,14,12,26.20
2013,05,05,14,13,26.20
2013,05,05,14,14,26.30
2013,05,05,14,15,26.40
2013,05,05,14,16,26.50
2013,05,05,14,17,26.50
2013,05,05,14,18,26.40
2013,05,05,14,19,26.40
2013,05,05,14,20,26.40
2013,05,05,14,21,26.40
2013,05,05,14,22,26.30
2013,05,05,14,23,26.30
2013,05,05,14,24,26.10
2013,05,05,14,25,26.00
2013,05,05,14,26,25.90
2013,05,05,14,27,25.90
2013,05,05,14,28,25.90
2013,05,05,14,29,26.00
2013,05,05,14,30,26.10
2013,05,05,14,31,26.20
2013,05,05,14,32,26.40
2013,05,05,14,33,26.40
2013,05,05,14,34,26.30
2013,05,05,14,35,26.30
2013,05,05,14,36,26.20
2013,05,05,14,37,26.30
2013,05,05,14,38,26.20
2013,05,05,14,39,26.00
2013,05,05,14,40,25.90
2013,05,05,14,41,25.90
2013,05,05,14,42,25.80
2013,05,05,14,43,25.70
2013,05,05,14,44,25.60
2013,05,05,14,45,25.60
2013,05,05,14,46,25.60
2013,05,05,14,47,25.70
2013,05,05,14,48,25.80
2013,05,05,14,49,25.80
2013,05,05,14,50,25.90
2013,05,05,14,51,25.90
2013,05,05,14,52,25.90
2013,05,05,14,53,25.90
2013,05,05,14,54,25.90
2013,05,05,14,55,25.90
2013,05,05,14,56,26.00
2013,05,05,14,57,26.10
2013,05,05,14,58,26.10
2013,05,05,14,59,26.20
2013,05,05,15,00,26.20
2013,05,05,15,01,26.20
2013,05,05,15,02,26.20
2013,05,05,15,03,26.20
2013,05,05,15,04,26.10
2013,05,05,15,05,26.10
2013,05,05,15,06,26.10
2013,05,05,15,07,26.20
2013,05,05,15,08,26.20
2013,05,05,15,09,26.30
2013,05,05,15,10,26.30
2013,05,05,15,11,26.30
2013,05,05,15,12,26.30
2013,05,05,15,13,26.30
2013,05,05,15,14,26.30
2013,05,05,15,15,26.40
2013,05,05,15,16,26.40
2013,05,05,15,17,26.40
2013,05,05,15,18,26.50
2013,05,05,15,19,26.60
2013,05,05,15,20,26.50
2013,05,05,15,21,26.60
2013,05,05,15,22,26.60
2013,05,05,15,23,26.60
2013,05,05,15,24,26.60
2013,05,05,15,25,26.60
2013,05,05,15,26,26.60
2013,05,05,15,27,26.50
2013,05,05,15,28,26.20
2013,05,05,15,29,26.00
2013,05,05,15,30,25.90
2013,05,05,15,31,25.70
2013,05,05,15,32,25.60
2013,05,05,15,33,25.60
2013,05,05,15,34,25.60
2013,05,05,15,35,25.70
2013,05,05,15,36,25.90
2013,05,05,15,37,25.90
2013,05,05,15,38,26.00
2013,05,05,15,39,26.10
2013,05,05,15,40,26.20
2013,05,05,15,41,26.10
2013,05,05,15,42,26.10
2013,05,05,15,43,26.00
2013,05,05,15,44,25.90
2013,05,05,15,45,25.90
2013,05,05,15,46,25.90
2013,05,05,15,47,25.90
2013,05,05,15,48,26.00
2013,05,05,15,49,26.00
2013,05,05,15,50,26.00
2013,05,05,15,51,26.00
2013,05,05,15,52,25.90
2013,05,05,15,53,25.90
2013,05,05,15,54,25.90
2013,05,05,15,55,25.90
2013,05,05,15,56,25.90
2013,05,05,15,57,25.90
2013,05,05,15,58,25.90
2013,05,05,15,59,25.90
2013,05,05,16,00,25.90
2013,05,05,16,01,25.90
2013,05,05,16,02,25.90
2013,05,05,16,03,26.00
2013,05,05,16,04,26.00
2013,05,05,16,05,26.00
2013,05,05,16,06,26.10
2013,05,05,16,07,26.10
2013,05,05,16,08,26.10
2013,05,05,16,09,26.20
2013,05,05,16,10,26.30
2013,05,05,16,11,26.40
2013,05,05,16,12,26.30
2013,05,05,16,13,26.20
2013,05,05,16,14,26.20
2013,05,05,16,15,26.20
2013,05,05,16,16,26.20
2013,05,05,16,17,26.20
2013,05,05,16,18,26.10
2013,05,05,16,19,26.10
2013,05,05,16,20,26.10
2013,05,05,16,21,26.00
2013,05,05,16,22,25.90
2013,05,05,16,23,25.90
2013,05,05,16,24,25.90
2013,05,05,16,25,26.00
2013,05,05,16,26,26.00
2013,05,05,16,27,26.10
2013,05,05,16,28,26.20
2013,05,05,16,29,26.30
2013,05,05,16,30,26.30
2013,05,05,16,31,26.40
2013,05,05,16,32,26.40
2013,05,05,16,33,26.40
2013,05,05,16,34,26.40
2013,05,05,16,35,26.30
2013,05,05,16,36,26.30
2013,05,05,16,37,26.30
2013,05,05,16,38,26.30
2013,05,05,16,39,26.30
2013,05,05,16,40,26.40
2013,05,05,16,41,26.40
2013,05,05,16,42,26.30
2013,05,05,16,43,26.20
2013,05,05,16,44,26.20
2013,05,05,16,45,26.20
2013,05,05,16,46,26.20
2013,05,05,16,47,26.10
2013,05,05,16,48,26.10
2013,05,05,16,49,26.20
2013,05,05,16,50,26.30
2013,05,05,16,51,26.30
2013,05,05,16,52,26.40
2013,05,05,16,53,26.50
2013,05,05,16,54,26.50
2013,05,05,16,55,26.50
2013,05,05,16,56,26.40
2013,05,05,16,57,26.30
2013,05,05,16,58,26.20
2013,05,05,16,59,26.20
2013,05,05,17,00,26.20
2013,05,05,17,01,26.20
2013,05,05,17,02,26.20
2013,05,05,17,03,26.20
2013,05,05,17,04,26.20
2013,05,05,17,05,26.20
2013,05,05,17,06,26.20
2013,05,05,17,07,26.20
2013,05,05,17,08,26.20
2013,05,05,17,09,26.20
2013,05,05,17,10,26.20
2013,05,05,17,11,26.20
2013,05,05,17,12,26.30
2013,05,05,17,13,26.40
2013,05,05,17,14,26.40
2013,05,05,17,15,26.60
2013,05,05,17,16,26.60
2013,05,05,17,17,26.70
2013,05,05,17,18,26.70
2013,05,05,17,19,26.70